Location: Berduj
(43.0019°N, 22.3781°E)
Time: 20:49:37
(UTC+00:00)

USA 238 DEB - Pass Details

Date: 19 October 2019
Orbit: 1028 x 1184 km, 63.4° (Epoch: 11 November)

Event Time Altitude Azimuth Distance (km) Brightness Sun altitude
Rises 16:47:13 0° 197° (SSW) 3,765 6.8 -12.6°
Reaches altitude 10° 16:49:52 10° 192° (SSW) 2,824 6.1 -13.1°
Maximum altitude 16:56:16 53° 118° (ESE) 1,276 3.8 -14.3°
Drops below altitude 10° 17:02:53 10° 44° (NE) 2,916 5.6 -15.5°
Enters shadow 17:03:38 - 43° (NE) 3,178 5.8 -15.6°
